Tracking 19242 objects as of 16-Aug-2018
HD Live streaming from Space Station
objects crossing your sky now

FENGYUN 1C DEB

Track FENGYUN 1C DEB now!
10-day predictions


NORAD ID: 29805
Int'l Code: 1999-025CX
Perigee: 860.6 km
Apogee: 1,139.2 km
Inclination: 99.7 °
Period: 105.0 minutes
Semi major axis: 7370 km
RCS: 0.0153 m2 (small)
Launch date: May 10, 1999
Source: People's Republic of China (PRC)
Launch site: Taiyaun Space Center, China (TSC)

Note: This is SATELLITE DEBRIS
aabbcc
Your satellite tracking list
Your tracking list is empty




NASA's NSSDC Master Catalog

Two Line Element Set (TLE):
1 29805U 99025CX  18227.94031206 -.00000011 +00000-0 +35404-4 0  9997
2 29805 099.7347 230.5912 0188963 309.2619 049.1893 13.71899993580064
Source of the keplerian elements: AFSPC